sat.trackr.live / text

‹ back to catalog

SUPERVIEW NEO-1 02

NORAD 52322 · 2022-043C

PAYLOAD ACTIVE UNKNOWN

§ Identity

Operator
Country
PRC
Launch date
2022-04-29
Launch site
JSC
Launch vehicle
Mass (kg)
RCS (m²)

External: N2YO · Heavens-Above · Gunter

§ Orbital elements

Epoch: 2026-05-25T05:05:06.214272Z

Period
94.97 min
Inclination
97.3405°
Eccentricity
0.0003165
Mean motion
15.16231346 rev/d
Perigee alt
515.1 km
Apogee alt
519.4 km
Semi-major
6,895.4 km
B*
2.6047e-4
RAAN
218.7480°
Arg perigee
73.3281°
Mean anomaly
286.8299°
Rev number
22,609

§ Raw data

SUPERVIEW NEO-1 021 52322U 22043C   26145.21187748  .00004972  00000+0  26047-3 0  99942 52322  97.3405 218.7480 0003165  73.3281 286.8299 15.16231346226098

JSON: /api/v1/satellites/52322 · /tle

For live sub-satellite position, see the globe view (requires WebGL).

§ Visibility from observer

Set your observer location to see the next 7 days of passes ≥ 10°. The values pass through the URL so the page stays shareable.

No JS? Fill the form by hand. The geolocation button needs JavaScript.

§ Radio — SatNOGS DB

ModeDescriptionDownlinkUplink
BPSK S-band telemetry 2.265 GHz

1 transmitter · refreshed weekly from db.satnogs.org